• Currently

    Reported at Lexington, Jim Kelly Field Airport, NE
    3:15 PM CST SAT JAN 21 2017
  • 50°F10°C
  • Clear
    Clear
  • Feels Like:50°F10°CDew Point:34°F1°CHumidity:54% Winds: Calm Calm Pressure:29.41 in996 hPaVisibility:10.00 miles16090.00 meters
Time Weather Temp Dew Point
Humidity Winds Visibility Pressure Precipitation
1 hr 24 hr
Sunday, January 22
16:15 16:15 Sunny Sunny 50°F10°C 33°F1°C 53% CalmCalm 10.0 miles16.1 km 29.41 in996 hPa 0.00 in0.00 mm --
15:55 15:55 Sunny Sunny 49°F9°C 34°F1°C 57% CalmCalm 10.0 miles16.1 km 29.41 in996 hPa 0.00 in0.00 mm --
15:35 15:35 Sunny Sunny 48°F9°C 35°F2°C 62% CalmCalm 10.0 miles16.1 km 29.41 in996 hPa 0.00 in0.00 mm --
15:15 15:15 Sunny Sunny 48°F9°C 36°F2°C 65% CalmCalm 10.0 miles16.1 km 29.41 in996 hPa 0.00 in0.00 mm --
14:55 14:55 Sunny Sunny 47°F8°C 36°F2°C 67% CalmCalm 10.0 miles16.1 km 29.41 in996 hPa 0.00 in0.00 mm --
14:35 14:35 Sunny Sunny 46°F8°C 36°F2°C 68% WNW 5 mphWNW 7 kph 10.0 miles16.1 km 29.41 in996 hPa 0.00 in0.00 mm --
14:15 14:15 Sunny Sunny 46°F8°C 36°F2°C 69% WNW 3 mphWNW 6 kph 10.0 miles16.1 km 29.41 in996 hPa 0.00 in0.00 mm --
13:55 13:55 Sunny Sunny 45°F7°C 36°F2°C 71% WNW 6 mphWNW 9 kph 10.0 miles16.1 km 29.41 in996 hPa 0.00 in0.00 mm --
13:35 13:35 Sunny Sunny 44°F7°C 36°F2°C 73% WNW 6 mphWNW 9 kph 10.0 miles16.1 km 29.44 in997 hPa 0.00 in0.00 mm --
13:15 13:15 Sunny Sunny 43°F6°C 35°F2°C 75% WNW 7 mphWNW 11 kph 10.0 miles16.1 km 29.44 in997 hPa 0.00 in0.00 mm --
12:55 12:55 Sunny Sunny 42°F6°C 35°F1°C 75% NW 6 mphNW 9 kph 10.0 miles16.1 km 29.44 in997 hPa 0.00 in0.00 mm --
12:35 12:35 Sunny Sunny 41°F5°C 34°F1°C 76% WNW 6 mphWNW 9 kph 10.0 miles16.1 km 29.44 in997 hPa 0.00 in0.00 mm --
12:15 12:15 Sunny Sunny 40°F4°C 33°F1°C 78% NW 6 mphNW 9 kph 10.0 miles16.1 km 29.44 in997 hPa 0.00 in0.00 mm --
11:55 11:55 Sunny Sunny 39°F4°C 33°F1°C 81% WNW 6 mphWNW 9 kph 10.0 miles16.1 km 29.44 in997 hPa 0.00 in0.00 mm --
11:35 11:35 Sunny Sunny 38°F3°C 33°F1°C 84% W 5 mphW 7 kph 10.0 miles16.1 km 29.44 in997 hPa 0.00 in0.00 mm --
11:15 11:15 Sunny Sunny 36°F2°C 33°F0°C 89% WSW 5 mphWSW 7 kph 10.0 miles16.1 km 29.44 in997 hPa 0.00 in0.00 mm --
10:55 10:55 Sunny Sunny 34°F1°C 32°F0°C 94% W 3 mphW 6 kph 10.0 miles16.1 km 29.44 in997 hPa 0.00 in0.00 mm --
10:35 10:35 Sunny Sunny 33°F1°C 32°F0°C 95% CalmCalm 7.0 miles11.3 km 29.44 in997 hPa 0.00 in0.00 mm --
10:15 10:15 Sunny With Mist And Fog Sunny With Mist And Fog 32°F0°C 31°F-0°C 96% CalmCalm 4.0 miles6.4 km 29.44 in997 hPa 0.00 in0.00 mm --
09:55 09:55 Sunny With Mist And Fog Sunny With Mist And Fog 30°F-1°C 29°F-2°C 96% CalmCalm 3.0 miles4.8 km 29.44 in997 hPa 0.00 in0.00 mm --
09:35 09:35 Sunny With Mist And Fog Sunny With Mist And Fog 29°F-2°C 27°F-3°C 95% CalmCalm 2.0 miles3.2 km 29.44 in997 hPa 0.00 in0.00 mm --
09:15 09:15 Sunny With Mist And Fog Sunny With Mist And Fog 29°F-2°C 28°F-2°C 95% NNE 3 mphNNE 6 kph 4.0 miles6.4 km 29.41 in996 hPa 0.00 in0.00 mm --
08:55 08:55 Clear Clear 27°F-3°C 26°F-3°C 94% CalmCalm 7.0 miles11.3 km 29.41 in996 hPa 0.00 in0.00 mm --
08:35 08:35 Clear Clear 29°F-1°C 28°F-2°C 95% CalmCalm 10.0 miles16.1 km 29.41 in996 hPa 0.00 in0.00 mm --
08:15 08:15 Clear Clear 31°F-1°C 29°F-1°C 95% W 5 mphW 7 kph 7.0 miles11.3 km 29.41 in996 hPa 0.00 in0.00 mm --
07:55 07:55 Clear Clear 30°F-1°C 29°F-2°C 94% CalmCalm 10.0 miles16.1 km 29.41 in996 hPa 0.00 in0.00 mm --
07:35 07:35 Clear Clear 29°F-2°C 28°F-2°C 94% CalmCalm 10.0 miles16.1 km 29.41 in996 hPa 0.00 in0.00 mm --
07:15 07:15 Clear Clear 29°F-2°C 28°F-2°C 94% CalmCalm 10.0 miles16.1 km 29.41 in996 hPa 0.00 in0.00 mm --
06:55 06:55 Clear Clear 31°F-0°C 30°F-1°C 94% W 3 mphW 6 kph 10.0 miles16.1 km 29.41 in996 hPa 0.00 in0.00 mm --
06:35 06:35 Clear Clear 31°F-1°C 29°F-2°C 94% W 6 mphW 9 kph 10.0 miles16.1 km 29.41 in996 hPa 0.00 in0.00 mm --
06:15 06:15 Clear Clear 30°F-1°C 29°F-2°C 94% WNW 3 mphWNW 6 kph 10.0 miles16.1 km 29.41 in996 hPa 0.00 in0.00 mm --
05:55 05:55 Clear Clear 31°F-1°C 29°F-2°C 94% WNW 5 mphWNW 7 kph 10.0 miles16.1 km 29.41 in996 hPa 0.00 in0.00 mm --
05:35 05:35 Clear Clear 31°F-0°C 30°F-1°C 94% W 6 mphW 9 kph 10.0 miles16.1 km 29.41 in996 hPa 0.00 in0.00 mm --
05:15 05:15 Clear Clear 31°F-1°C 29°F-2°C 94% W 7 mphW 11 kph 10.0 miles16.1 km 29.41 in996 hPa 0.00 in0.00 mm --
04:55 04:55 Clear Clear 32°F0°C 31°F-1°C 95% NW 5 mphNW 7 kph 10.0 miles16.1 km 29.41 in996 hPa 0.00 in0.00 mm --
04:35 04:35 Partly Cloudy Partly Cloudy 33°F1°C 32°F-0°C 93% CalmCalm 10.0 miles16.1 km 29.41 in996 hPa 0.00 in0.00 mm --
04:15 04:15 Cloudy Cloudy 35°F1°C 32°F0°C 91% WNW 3 mphWNW 6 kph 10.0 miles16.1 km 29.41 in996 hPa 0.00 in0.00 mm --
03:55 03:55 Cloudy Cloudy 35°F2°C 32°F0°C 90% W 6 mphW 9 kph 10.0 miles16.1 km 29.41 in996 hPa 0.00 in0.00 mm --
03:35 03:35 Cloudy Cloudy 35°F2°C 33°F0°C 92% W 6 mphW 9 kph 10.0 miles16.1 km 29.41 in996 hPa 0.00 in0.00 mm --
03:15 03:15 Cloudy Cloudy 34°F1°C 32°F0°C 92% W 5 mphW 7 kph 10.0 miles16.1 km 29.41 in996 hPa 0.00 in0.00 mm --
02:55 02:55 Cloudy Cloudy 34°F1°C 32°F0°C 92% W 5 mphW 7 kph 10.0 miles16.1 km 29.38 in995 hPa 0.00 in0.00 mm --
02:35 02:35 Cloudy Cloudy 34°F1°C 32°F0°C 94% W 5 mphW 7 kph 10.0 miles16.1 km 29.41 in996 hPa 0.00 in0.00 mm --
02:15 02:15 Cloudy Cloudy 33°F1°C 32°F0°C 94% CalmCalm 10.0 miles16.1 km 29.38 in995 hPa 0.00 in0.00 mm --
01:55 01:55 Cloudy Cloudy 33°F1°C 32°F0°C 96% WNW 5 mphWNW 7 kph 7.0 miles11.3 km 29.38 in995 hPa 0.00 in0.00 mm --
01:35 01:35 Mostly Cloudy Mostly Cloudy 33°F1°C 32°F0°C 95% WNW 3 mphWNW 6 kph 7.0 miles11.3 km 29.41 in996 hPa 0.00 in0.00 mm --
01:15 01:15 Mostly Cloudy Mostly Cloudy 33°F0°C 32°F-0°C 96% W 6 mphW 9 kph 7.0 miles11.3 km 29.41 in996 hPa 0.00 in0.00 mm --